Vorticity
9 10 10 11 9 8 6 6 8 11 14 18 20 23 29 39 48 37 15 -7 -8 -7 -4 -2 -1 -0 0 0 2 5 7 9 11 14 16 19 19 20 20 22 21 18 17 21 28 34 38 40 40 39 36 32 26 22 19 17 14 13 15 18 22 23 21 17 15 13 11 11 11
9 10 10 10 9 7 5 6 8 11 14 19 21 23 27 37 46 38 18 -7 -9 -8 -5 -3 -1 -0 -0 -0 2 4 7 9 11 14 16 17 17 18 20 25 26 22 18 16 21 27 32 35 35 34 32 28 23 19 16 13 13 14 16 19 20 17 13 8 8 9 10 10 13
9 9 10 10 8 6 5 6 8 11 14 18 21 23 27 34 43 38 22 -2 -9 -9 -6 -3 -2 -1 -1 -1 1 4 6 8 11 13 15 16 16 17 20 25 30 28 23 16 16 18 21 23 23 23 22 20 16 13 11 10 13 14 15 15 13 11 9 10 12 13 14 15 19
9 9 10 10 8 6 6 6 8 11 14 16 20 23 27 32 40 38 27 4 -7 -9 -6 -4 -3 -2 -2 -0 1 3 5 7 10 13 14 16 16 16 18 23 31 34 32 25 18 15 13 12 13 13 12 11 9 9 10 13 15 14 12 11 11 13 14 15 14 14 14 14 15
9 10 10 10 8 6 6 6 8 10 12 15 19 23 28 31 37 37 30 10 -3 -7 -7 -6 -5 -3 -1 0 1 2 4 6 9 11 12 14 15 15 16 19 27 34 38 38 31 24 17 13 12 11 10 9 10 13 16 20 18 16 14 13 13 12 11 9 7 6 5 3 1
9 9 10 10 8 6 6 7 9 10 11 14 19 23 27 30 34 36 32 17 1 -6 -7 -7 -5 -2 1 1 0 0 1 4 7 8 9 10 12 13 13 16 21 27 34 41 42 39 33 26 22 19 18 18 19 21 23 24 21 19 17 16 13 10 7 5 3 2 1 -0 -1
9 9 9 10 8 7 6 6 8 9 11 14 19 22 26 28 33 36 35 25 5 -5 -9 -8 -6 -2 0 -0 -2 -2 -1 2 4 5 5 4 6 7 9 11 14 18 23 31 39 43 43 40 35 31 29 28 28 27 26 24 22 20 20 20 18 16 13 12 12 12 11 10 7
9 9 9 9 8 7 6 6 7 9 11 15 18 21 24 27 31 35 36 30 12 -2 -10 -10 -7 -3 -0 0 -2 -3 -3 -1 2 3 3 0 -0 0 2 5 7 10 13 17 24 30 35 36 35 33 30 29 27 26 25 23 22 21 21 21 20 19 18 19 19 20 20 20 18
9 9 10 9 9 8 7 7 8 9 12 14 17 20 23 26 29 32 34 34 22 7 -5 -10 -8 -5 -2 0 -2 -3 -4 -3 -1 1 2 2 -1 -2 -3 -1 1 3 5 7 10 14 18 21 22 22 22 21 20 19 19 18 16 14 12 10 8 8 8 9 11 12 13 15 18
9 9 9 10 9 8 7 7 8 9 11 13 15 18 21 25 27 29 32 34 30 18 5 -5 -7 -6 -3 -0 -1 -3 -5 -4 -3 -1 1 3 3 1 -1 -2 -1 1 3 4 4 5 6 7 9 9 10 10 10 10 10 9 8 5 3 1 -1 -2 -1 1 2 4 5 7 11
8 9 9 9 9 8 8 7 7 9 11 13 14 16 19 23 26 28 29 31 31 26 17 6 -2 -5 -3 -0 -1 -3 -4 -4 -4 -3 -1 2 5 6 5 4 2 2 4 5 5 5 3 2 2 2 2 2 3 5 6 7 8 8 8 7 4 3 3 4 6 5 4 4 6
8 9 9 9 9 9 8 7 7 8 10 12 14 15 18 21 24 26 26 26 28 28 25 17 6 1 -1 2 0 -1 -3 -4 -4 -4 -2 -1 3 5 7 8 7 6 5 6 6 6 5 3 2 1 0 0 1 2 4 6 8 10 13 14 14 12 11 10 10 9 7 3 2
8 9 9 9 9 9 8 8 7 8 9 12 13 15 16 18 21 22 23 23 25 27 27 24 15 8 5 6 4 2 -0 -3 -3 -3 -2 -1 1 3 5 7 8 8 7 6 6 5 4 3 2 1 0 0 -1 -1 -0 1 3 5 9 13 15 16 15 13 11 9 7 2 1
8 8 9 9 9 9 9 8 7 8 9 11 13 15 16 17 19 20 21 21 22 23 24 23 18 14 12 10 8 6 5 1 -1 -2 -2 -1 1 2 3 4 4 5 5 6 7 6 5 3 1 0 -0 0 -0 -1 -1 -1 -0 2 4 7 10 13 15 15 12 8 4 1 1
7 8 9 9 9 9 9 8 7 7 8 10 13 14 15 16 17 18 19 19 20 20 20 20 17 16 15 13 12 12 10 7 3 1 -0 0 1 2 2 2 3 2 1 2 5 7 8 6 3 1 -0 -0 -0 -0 -1 -2 -1 0 2 3 4 7 10 13 12 9 5 3 3
7 8 8 9 9 9 9 8 7 7 8 9 11 13 15 16 17 17 18 18 19 18 17 17 16 16 15 13 15 15 15 13 9 5 3 1 2 2 2 1 4 3 1 -4 -1 3 7 10 8 5 3 1 0 -0 -1 -2 -2 -1 -0 0 1 3 5 8 10 10 9 8 9
7 7 8 9 9 9 9 8 7 7 7 9 10 13 15 16 17 17 18 17 18 17 17 16 15 15 14 13 16 17 16 16 14 11 7 5 5 3 2 1 5 7 5 -5 -8 -4 2 8 10 10 8 5 3 1 -0 -1 -2 -3 -2 -2 -1 -0 2 4 6 8 9 10 10
7 7 8 9 9 9 9 8 8 7 7 8 9 12 14 15 17 18 18 17 17 17 17 16 15 14 13 12 15 16 17 17 16 15 13 11 9 6 4 3 6 10 10 1 -8 -9 -4 3 7 10 10 9 7 5 3 1 -1 -2 -3 -3 -2 -1 0 2 3 5 6 7 7
6 7 7 9 9 9 9 9 8 7 7 7 9 10 12 14 16 17 18 18 18 17 17 16 15 15 14 12 13 14 16 17 17 17 17 16 14 12 10 9 10 12 13 7 -5 -8 -6 -1 4 7 9 10 10 8 6 4 2 0 -1 -2 -2 -1 -1 0 1 3 4 5 5
6 7 8 8 9 9 9 9 8 7 7 7 8 9 11 13 15 17 18 19 19 19 18 17 16 15 14 13 13 13 14 15 16 17 18 18 18 19 19 18 15 14 12 8 -1 -4 -3 1 3 5 7 8 9 9 9 8 6 4 2 1 0 -0 -0 -0 0 2 3 4 4
7 7 8 8 9 9 9 9 9 8 7 7 8 8 10 11 13 15 18 19 19 20 19 19 17 16 15 14 13 13 12 13 16 17 18 18 21 24 26 24 20 17 13 7 -1 -3 0 4 6 6 7 7 7 8 9 9 9 8 6 5 4 3 2 1 1 1 3 4 5
7 7 8 8 9 9 9 9 9 8 7 7 7 8 9 10 12 14 16 17 19 20 21 21 19 18 16 15 14 13 12 12 15 16 17 17 21 23 23 20 18 18 15 10 1 -1 1 6 7 8 7 7 7 7 8 8 9 9 9 9 8 7 6 5 3 3 3 4 5
7 8 8 9 9 9 9 9 9 8 8 7 7 8 8 10 11 12 13 15 17 19 21 22 22 21 19 17 15 13 12 12 14 15 17 17 17 14 10 8 10 13 15 12 5 2 2 5 7 8 8 7 7 7 8 8 9 9 10 11 11 11 10 10 8 7 6 6 6
7 8 9 9 9 9 9 9 9 9 8 7 7 7 8 9 10 11 12 13 15 17 19 22 23 23 22 20 18 16 14 13 13 14 15 15 10 4 -1 -2 2 6 10 12 6 3 3 5 7 8 8 8 8 8 8 8 9 10 11 12 13 13 13 13 13 12 11 10 9
8 9 9 10 10 10 9 9 9 9 8 7 7 7 8 9 9 11 12 12 13 15 17 19 22 24 24 23 22 20 18 15 13 13 14 14 7 -1 -9 -12 -8 -3 3 9 4 2 3 7 8 8 8 9 8 8 9 9 9 10 11 12 13 14 15 15 15 15 15 14 13
8 9 10 10 10 10 10 10 10 9 8 8 7 7 7 8 9 10 11 12 12 13 14 16 19 22 24 25 24 23 21 19 16 15 14 14 9 1 -8 -17 -17 -14 -9 1 5 4 3 6 8 8 9 9 9 9 9 9 10 10 11 11 12 13 14 15 15 15 15 15 14
9 9 10 10 11 11 11 10 10 9 9 8 7 7 7 7 8 10 11 12 12 13 13 14 17 19 22 24 24 24 24 23 21 18 16 15 14 10 3 -6 -13 -18 -18 -12 2 5 3 0 5 7 9 10 10 10 10 10 10 10 10 11 11 12 13 14 14 14 14 14 14
9 10 10 11 11 11 11 10 10 9 9 8 8 7 7 6 7 9 10 12 12 12 13 14 15 17 19 22 23 24 25 24 24 22 20 18 17 15 13 8 -1 -10 -16 -20 -8 -1 -0 -5 2 6 9 10 10 11 11 11 11 11 11 11 11 11 11 12 12 12 12 12 13
9 9 10 11 12 11 11 11 11 10 9 9 8 7 7 6 7 8 9 11 11 12 13 13 14 15 17 19 21 23 24 25 25 24 24 23 21 19 17 15 10 5 -2 -11 -11 -6 -1 -4 -1 4 7 9 10 11 12 13 13 12 12 11 11 11 10 11 11 11 11 11 11
8 9 11 11 12 12 12 12 11 10 10 9 9 8 7 6 6 7 7 9 11 12 12 12 13 14 16 18 19 21 23 25 25 24 24 24 24 23 22 20 17 15 11 5 -4 -6 -6 -8 -4 0 4 7 9 10 12 13 14 14 13 13 12 11 10 10 10 10 10 10 10
8 9 10 11 12 12 12 12 11 11 10 10 9 9 8 7 7 6 7 8 9 10 11 11 13 14 15 17 18 19 21 23 24 24 23 23 23 23 23 23 22 20 18 16 7 0 -5 -9 -5 -2 1 4 7 9 11 12 14 14 14 14 13 12 11 11 11 11 11 11 11
8 9 10 11 12 12 12 12 12 11 11 10 10 10 9 8 7 7 6 7 7 8 9 10 11 13 14 15 16 17 18 20 22 23 23 22 21 20 20 21 21 22 23 22 17 10 3 1 -3 -4 -2 1 5 7 9 11 13 15 16 15 14 13 13 13 13 13 13 13 13
8 8 9 10 11 12 12 13 12 12 11 11 11 10 10 9 8 7 7 6 7 7 8 9 10 11 12 13 14 15 16 17 19 21 23 23 21 19 17 17 17 19 22 24 23 17 10 9 1 -3 -3 -1 2 5 7 9 13 17 19 19 17 16 15 15 16 16 16 16 16
8 8 9 10 11 11 12 13 12 12 12 12 12 11 10 10 9 8 8 7 7 7 8 9 9 10 11 11 13 14 15 16 16 18 20 23 22 21 19 17 16 16 18 21 23 18 11 5 1 -1 -2 -2 -0 2 5 9 15 20 23 22 20 19 18 19 19 19 19 19 19
8 8 9 9 10 11 12 12 13 13 13 12 12 12 11 11 10 10 9 8 7 7 7 8 9 9 10 10 12 13 14 15 16 16 18 21 22 23 21 19 18 17 16 16 18 16 12 5 1 -0 -1 -2 -1 1 4 10 19 25 27 24 21 20 20 20 21 21 21 21 22
8 8 9 9 9 10 11 12 12 13 13 12 12 12 12 12 11 11 10 9 8 8 8 8 8 9 9 10 10 12 13 15 15 16 16 18 21 22 23 22 20 19 18 16 16 15 14 11 6 3 0 -2 -1 1 5 14 24 28 27 22 20 19 19 19 19 20 21 23 24
8 8 9 9 9 10 10 11 12 12 12 12 12 12 12 12 12 12 11 10 9 9 8 8 8 8 9 9 10 11 12 14 15 16 16 16 18 20 21 21 21 20 20 19 19 20 21 19 11 6 2 0 1 4 10 22 30 30 25 19 16 16 16 16 17 19 21 24 26
8 8 9 9 9 9 10 10 11 12 12 12 12 12 12 12 12 12 12 11 10 9 9 8 8 8 8 9 10 10 11 12 14 15 16 15 15 16 17 18 18 18 19 21 23 26 27 26 13 6 4 5 5 10 19 32 32 26 20 15 13 12 12 13 15 18 21 24 26
8 8 9 9 9 9 9 9 10 11 11 12 12 12 12 12 12 12 12 12 11 10 9 9 8 8 8 8 9 10 10 11 13 14 15 15 15 15 15 16 15 15 16 18 22 25 28 28 17 11 9 10 11 19 28 35 27 20 14 12 10 9 9 10 13 16 19 22 25
8 8 9 9 9 9 9 9 9 10 11 11 11 12 12 12 12 12 12 12 12 11 10 9 8 8 8 8 8 9 10 10 12 13 15 15 15 15 15 15 15 14 14 14 16 19 21 24 19 17 17 16 19 26 32 29 19 13 11 10 8 8 8 8 10 13 16 19 22
8 8 9 9 9 10 9 9 9 10 10 11 11 11 12 12 12 12 12 12 12 11 11 10 9 8 8 7 8 9 9 10 11 12 14 15 14 14 14 15 16 15 13 12 12 12 13 15 15 16 17 19 22 27 28 22 15 11 10 9 8 7 6 7 8 10 12 16 20
Height
3049 3046 3042 3039 3036 3033 3029 3025 3021 3017 3012 3008 3004 3001 2997 2994 2992 2989 2988 2986 2985 2982 2980 2978 2975 2973 2970 2967 2965 2962 2960 2957 2953 2949 2946 2942 2938 2934 2931 2927 2924 2921 2918 2915 2912 2909 2906 2904 2902 2901 2899 2898 2898 2898 2897 2897 2897 2897 2897 2897 2897 2898 2898 2899 2899 2900 2900 2900 2900
3048 3045 3042 3039 3036 3032 3028 3024 3020 3016 3012 3008 3004 3000 2997 2993 2991 2989 2987 2986 2984 2982 2980 2978 2976 2973 2971 2968 2966 2963 2960 2957 2953 2950 2946 2942 2938 2934 2931 2928 2925 2922 2919 2916 2913 2911 2908 2906 2904 2902 2901 2900 2900 2899 2899 2899 2899 2898 2898 2898 2899 2899 2899 2900 2900 2900 2900 2900 2900
3048 3045 3041 3038 3035 3031 3027 3024 3020 3016 3012 3007 3004 3000 2996 2993 2991 2989 2987 2986 2984 2982 2980 2978 2976 2973 2971 2968 2966 2964 2961 2957 2954 2951 2947 2942 2938 2935 2932 2929 2926 2923 2920 2917 2915 2912 2910 2908 2906 2905 2903 2902 2902 2902 2901 2901 2900 2900 2900 2900 2900 2900 2900 2901 2901 2901 2901 2901 2901
3047 3044 3041 3038 3034 3031 3027 3023 3019 3015 3012 3007 3004 3000 2996 2993 2990 2988 2987 2986 2984 2982 2980 2978 2975 2973 2971 2969 2967 2964 2962 2959 2955 2952 2948 2944 2940 2937 2934 2931 2927 2924 2922 2919 2916 2914 2912 2910 2908 2907 2905 2904 2904 2903 2903 2902 2902 2902 2901 2901 2901 2901 2902 2902 2902 2902 2902 2901 2901
3047 3044 3041 3037 3034 3031 3027 3023 3019 3015 3011 3007 3004 3000 2996 2993 2990 2988 2987 2985 2984 2982 2980 2978 2976 2973 2972 2970 2967 2965 2962 2960 2957 2953 2949 2945 2942 2939 2936 2933 2930 2926 2923 2920 2918 2916 2914 2912 2910 2909 2907 2907 2906 2905 2905 2904 2903 2903 2903 2903 2902 2902 2902 2902 2902 2902 2902 2902 2902
3046 3043 3040 3037 3033 3030 3026 3022 3019 3015 3012 3008 3004 3000 2996 2993 2990 2988 2986 2985 2984 2982 2980 2978 2976 2974 2972 2970 2968 2965 2963 2961 2958 2955 2951 2947 2944 2941 2938 2936 2932 2929 2926 2922 2920 2918 2916 2914 2912 2911 2910 2909 2908 2907 2906 2906 2905 2905 2905 2904 2904 2904 2903 2903 2903 2902 2902 2902 2902
3046 3043 3040 3037 3033 3030 3026 3022 3019 3015 3011 3007 3004 3000 2997 2993 2991 2988 2986 2985 2983 2982 2980 2978 2976 2974 2972 2970 2968 2966 2963 2962 2959 2956 2953 2950 2947 2943 2941 2938 2936 2932 2929 2926 2923 2921 2918 2916 2915 2913 2912 2911 2910 2909 2908 2908 2907 2907 2906 2906 2906 2905 2905 2904 2904 2904 2903 2903 2903
3046 3042 3039 3036 3033 3029 3026 3022 3018 3015 3011 3007 3004 3000 2997 2994 2991 2988 2986 2984 2982 2981 2980 2978 2976 2974 2972 2970 2968 2966 2964 2962 2960 2957 2955 2952 2949 2946 2943 2941 2938 2936 2933 2930 2927 2924 2922 2920 2917 2916 2915 2914 2912 2912 2911 2910 2909 2909 2908 2908 2907 2907 2907 2906 2906 2905 2905 2904 2904
3045 3042 3039 3036 3032 3029 3025 3022 3018 3015 3011 3007 3004 3001 2997 2994 2991 2988 2985 2983 2982 2981 2979 2978 2976 2974 2972 2970 2968 2966 2964 2962 2960 2958 2956 2953 2951 2948 2945 2943 2941 2938 2936 2933 2931 2928 2926 2924 2922 2920 2918 2917 2916 2915 2914 2913 2912 2912 2911 2910 2910 2909 2908 2908 2907 2907 2906 2905 2904
3045 3042 3038 3035 3032 3028 3025 3022 3018 3015 3011 3008 3004 3001 2997 2994 2991 2988 2985 2983 2981 2980 2979 2977 2976 2974 2972 2970 2968 2967 2964 2962 2961 2959 2957 2954 2952 2950 2947 2945 2943 2940 2938 2936 2934 2932 2930 2928 2926 2924 2922 2921 2919 2918 2917 2916 2915 2914 2913 2912 2912 2911 2910 2909 2908 2908 2907 2906 2905
3045 3042 3038 3035 3032 3028 3025 3022 3018 3015 3011 3008 3004 3001 2997 2994 2991 2988 2985 2983 2981 2979 2978 2977 2975 2973 2972 2970 2968 2967 2965 2963 2961 2959 2957 2955 2953 2951 2949 2947 2944 2942 2940 2938 2936 2934 2932 2931 2929 2927 2926 2924 2922 2921 2920 2918 2917 2916 2915 2914 2913 2912 2912 2911 2910 2909 2908 2907 2906
3044 3041 3038 3035 3032 3028 3025 3022 3018 3015 3012 3008 3004 3001 2997 2994 2991 2988 2985 2982 2981 2979 2977 2976 2974 2973 2971 2970 2968 2967 2965 2963 2961 2959 2957 2956 2954 2952 2950 2948 2946 2943 2942 2940 2938 2936 2934 2932 2931 2929 2928 2926 2925 2923 2922 2920 2919 2917 2916 2915 2914 2913 2912 2912 2911 2910 2909 2908 2907
3044 3041 3037 3034 3031 3028 3025 3021 3018 3015 3012 3008 3004 3001 2997 2994 2991 2988 2985 2982 2980 2978 2977 2975 2974 2972 2971 2969 2968 2966 2965 2963 2961 2959 2958 2956 2954 2952 2951 2949 2947 2944 2942 2941 2939 2937 2936 2934 2932 2931 2929 2927 2926 2925 2923 2922 2921 2919 2918 2917 2915 2914 2913 2912 2912 2911 2910 2909 2908
3043 3040 3037 3034 3031 3027 3024 3021 3018 3015 3011 3008 3004 3001 2997 2994 2991 2987 2985 2982 2980 2978 2976 2975 2973 2972 2970 2969 2967 2966 2964 2963 2961 2960 2958 2957 2955 2953 2951 2949 2947 2946 2943 2942 2940 2938 2937 2936 2934 2932 2931 2929 2927 2926 2924 2923 2922 2921 2919 2918 2917 2916 2915 2913 2912 2911 2911 2910 2909
3043 3040 3037 3033 3030 3027 3024 3021 3018 3015 3011 3008 3004 3001 2997 2994 2991 2987 2985 2982 2980 2978 2976 2974 2972 2971 2970 2968 2967 2965 2964 2962 2961 2959 2958 2957 2955 2953 2952 2950 2948 2946 2944 2942 2941 2939 2938 2936 2935 2933 2932 2930 2928 2927 2925 2924 2923 2922 2921 2919 2918 2917 2916 2915 2914 2913 2912 2910 2909
3043 3040 3037 3033 3030 3027 3024 3021 3017 3014 3011 3007 3004 3001 2997 2994 2991 2987 2984 2982 2980 2977 2975 2973 2972 2971 2969 2967 2966 2965 2963 2962 2960 2959 2957 2956 2955 2953 2952 2950 2948 2947 2945 2943 2941 2940 2938 2937 2935 2934 2932 2931 2929 2928 2926 2925 2923 2922 2921 2920 2919 2918 2917 2916 2915 2914 2912 2911 2910
3042 3039 3036 3033 3030 3027 3024 3021 3017 3014 3011 3007 3004 3001 2997 2994 2991 2987 2985 2982 2979 2977 2975 2973 2972 2970 2968 2967 2966 2964 2962 2961 2960 2958 2957 2955 2954 2952 2951 2950 2948 2947 2945 2943 2941 2940 2938 2937 2936 2934 2933 2932 2930 2929 2927 2926 2924 2923 2922 2921 2920 2919 2917 2917 2916 2914 2913 2912 2911
3042 3039 3036 3033 3030 3027 3024 3021 3017 3014 3011 3007 3004 3001 2997 2994 2991 2988 2985 2982 2979 2977 2975 2973 2971 2969 2968 2967 2965 2963 2962 2960 2959 2957 2956 2954 2953 2952 2950 2949 2948 2946 2945 2943 2941 2939 2938 2937 2936 2935 2933 2932 2931 2929 2928 2926 2925 2923 2922 2921 2920 2919 2918 2917 2916 2915 2913 2912 2911
3042 3039 3036 3033 3030 3027 3023 3020 3017 3014 3011 3007 3004 3001 2998 2995 2992 2988 2985 2982 2980 2977 2975 2973 2971 2969 2968 2966 2965 2963 2961 2960 2958 2957 2955 2954 2952 2951 2949 2948 2947 2946 2944 2942 2941 2939 2938 2937 2936 2935 2933 2932 2931 2930 2928 2927 2925 2924 2922 2921 2920 2919 2918 2917 2916 2915 2913 2912 2911
3042 3039 3036 3032 3029 3026 3023 3020 3017 3014 3011 3007 3004 3001 2998 2995 2992 2989 2986 2983 2980 2977 2975 2973 2971 2969 2967 2966 2964 2963 2961 2959 2958 2956 2955 2953 2952 2950 2948 2947 2946 2944 2943 2942 2940 2939 2937 2937 2935 2934 2933 2932 2931 2930 2928 2927 2926 2924 2922 2921 2920 2919 2917 2917 2916 2914 2913 2912 2911
3042 3039 3036 3032 3029 3026 3023 3020 3017 3014 3011 3007 3004 3002 2998 2995 2992 2989 2986 2983 2981 2978 2975 2973 2971 2969 2967 2966 2964 2963 2961 2959 2957 2956 2955 2953 2951 2950 2948 2946 2945 2943 2942 2941 2939 2938 2937 2936 2935 2934 2932 2931 2930 2929 2928 2927 2925 2924 2922 2921 2919 2918 2917 2916 2915 2914 2912 2912 2910
3041 3038 3035 3032 3029 3026 3023 3020 3017 3014 3011 3008 3005 3002 2999 2996 2993 2990 2987 2984 2981 2978 2976 2973 2971 2969 2967 2965 2964 2962 2961 2959 2958 2956 2955 2953 2952 2950 2948 2946 2944 2942 2941 2939 2938 2937 2937 2935 2934 2933 2932 2930 2929 2928 2927 2926 2924 2923 2922 2921 2919 2917 2916 2915 2914 2913 2912 2911 2909
3041 3038 3035 3032 3029 3026 3023 3020 3017 3014 3011 3008 3005 3002 2999 2996 2993 2990 2987 2984 2982 2979 2976 2973 2971 2969 2967 2965 2963 2962 2961 2959 2958 2957 2955 2953 2952 2950 2948 2947 2945 2943 2941 2939 2937 2937 2936 2935 2933 2932 2931 2929 2928 2927 2926 2924 2923 2922 2921 2919 2918 2917 2915 2914 2912 2912 2911 2909 2908
3041 3038 3035 3032 3028 3026 3023 3020 3017 3014 3011 3008 3006 3003 3000 2997 2994 2991 2988 2985 2982 2979 2977 2974 2972 2969 2967 2965 2963 2962 2960 2959 2958 2957 2956 2954 2952 2951 2949 2947 2946 2944 2943 2942 2940 2937 2936 2935 2933 2932 2930 2928 2927 2926 2924 2923 2922 2920 2919 2918 2917 2916 2914 2913 2911 2910 2909 2908 2907
3041 3037 3034 3031 3028 3026 3022 3020 3017 3014 3011 3009 3006 3003 3000 2997 2994 2991 2988 2985 2982 2980 2977 2974 2972 2970 2967 2965 2963 2962 2960 2959 2958 2957 2956 2954 2953 2951 2949 2947 2946 2945 2944 2944 2943 2939 2935 2934 2933 2931 2929 2928 2926 2925 2923 2922 2921 2919 2918 2916 2915 2914 2913 2912 2910 2909 2907 2906 2905
3040 3037 3034 3031 3028 3025 3022 3020 3017 3014 3012 3009 3006 3003 3001 2998 2995 2992 2989 2986 2983 2980 2977 2975 2972 2970 2967 2965 2963 2962 2960 2958 2957 2956 2955 2954 2953 2951 2949 2947 2946 2944 2943 2942 2944 2941 2936 2934 2932 2931 2929 2927 2926 2924 2922 2921 2919 2918 2917 2915 2913 2912 2911 2910 2908 2907 2906 2904 2903
3040 3037 3034 3031 3028 3026 3023 3020 3017 3014 3012 3009 3006 3003 3001 2998 2995 2992 2989 2987 2984 2981 2978 2976 2973 2970 2968 2966 2963 2961 2960 2958 2957 2955 2954 2953 2952 2951 2949 2948 2946 2944 2943 2942 2944 2942 2937 2933 2932 2930 2928 2927 2925 2923 2922 2920 2918 2917 2915 2914 2912 2911 2909 2908 2907 2906 2904 2903 2902
3040 3037 3034 3031 3028 3026 3023 3020 3017 3014 3012 3009 3007 3004 3001 2998 2996 2993 2990 2987 2984 2982 2979 2976 2973 2971 2968 2966 2963 2961 2959 2957 2956 2954 2953 2952 2951 2950 2949 2947 2946 2945 2943 2942 2942 2942 2939 2934 2931 2930 2928 2926 2925 2923 2921 2919 2918 2916 2914 2913 2911 2910 2908 2907 2905 2904 2903 2901 2900
3040 3037 3034 3031 3028 3026 3023 3020 3017 3015 3012 3009 3007 3004 3001 2999 2996 2993 2991 2988 2985 2982 2979 2977 2974 2971 2968 2966 2964 2961 2959 2957 2956 2954 2952 2951 2950 2949 2948 2947 2945 2944 2943 2942 2940 2941 2940 2935 2931 2929 2927 2926 2924 2922 2921 2919 2917 2915 2913 2912 2910 2908 2907 2905 2904 2902 2901 2900 2899
3040 3037 3034 3032 3028 3026 3023 3020 3017 3015 3012 3009 3007 3004 3002 2999 2996 2993 2991 2988 2985 2982 2980 2977 2974 2972 2969 2967 2964 2962 2959 2957 2956 2954 2952 2951 2949 2948 2947 2946 2945 2943 2942 2941 2940 2939 2938 2935 2932 2929 2927 2926 2924 2922 2920 2918 2916 2914 2912 2911 2909 2907 2906 2904 2903 2902 2900 2899 2897
3040 3037 3034 3031 3028 3026 3023 3020 3017 3015 3012 3009 3007 3004 3002 2999 2997 2994 2991 2989 2986 2983 2980 2977 2975 2972 2970 2967 2965 2962 2960 2958 2956 2954 2952 2950 2949 2947 2946 2945 2944 2942 2942 2941 2939 2938 2937 2935 2932 2929 2927 2925 2923 2921 2919 2917 2916 2914 2912 2910 2908 2907 2905 2903 2902 2900 2899 2897 2896
3039 3037 3034 3031 3028 3026 3023 3020 3017 3015 3012 3010 3007 3004 3002 2999 2997 2994 2992 2989 2986 2983 2980 2978 2975 2972 2970 2967 2965 2963 2960 2958 2956 2954 2952 2950 2948 2947 2946 2944 2943 2942 2941 2940 2938 2937 2937 2936 2933 2930 2927 2925 2923 2921 2919 2917 2915 2913 2911 2909 2907 2906 2904 2902 2901 2899 2898 2896 2895
3039 3037 3034 3031 3028 3026 3023 3020 3017 3015 3012 3010 3007 3005 3002 3000 2997 2995 2992 2989 2986 2983 2981 2978 2975 2972 2970 2967 2965 2963 2961 2958 2956 2954 2952 2950 2948 2946 2945 2944 2942 2941 2940 2939 2938 2937 2936 2936 2933 2930 2927 2925 2923 2920 2918 2917 2915 2913 2911 2909 2907 2905 2903 2902 2900 2898 2897 2895 2893
3039 3037 3034 3031 3028 3026 3023 3020 3018 3015 3012 3010 3007 3005 3002 3000 2997 2995 2992 2990 2987 2984 2981 2978 2976 2973 2970 2967 2965 2963 2961 2958 2956 2954 2952 2950 2948 2946 2945 2943 2942 2941 2939 2938 2937 2936 2936 2935 2933 2930 2927 2925 2922 2920 2918 2916 2914 2912 2910 2908 2906 2904 2902 2901 2899 2897 2896 2894 2892
3039 3037 3034 3031 3028 3026 3023 3021 3018 3015 3013 3010 3008 3005 3003 3000 2997 2995 2993 2990 2987 2985 2982 2979 2976 2973 2971 2968 2966 2963 2961 2959 2956 2954 2952 2950 2948 2946 2945 2943 2942 2940 2939 2938 2937 2936 2935 2934 2932 2929 2927 2925 2922 2920 2917 2915 2913 2911 2909 2907 2905 2903 2902 2900 2898 2897 2895 2893 2891
3039 3037 3034 3031 3028 3026 3023 3021 3018 3016 3013 3011 3008 3006 3003 3000 2998 2996 2993 2991 2988 2985 2982 2980 2977 2974 2971 2968 2966 2963 2961 2959 2957 2955 2952 2950 2948 2947 2945 2943 2942 2941 2939 2938 2937 2936 2934 2933 2932 2929 2927 2924 2922 2919 2917 2915 2912 2910 2908 2906 2905 2903 2901 2899 2897 2896 2894 2892 2890
3039 3036 3034 3031 3028 3026 3023 3021 3018 3016 3013 3011 3008 3006 3003 3001 2998 2996 2993 2991 2988 2986 2983 2980 2977 2975 2972 2969 2967 2964 2962 2959 2957 2955 2953 2951 2949 2947 2946 2944 2942 2941 2939 2938 2937 2935 2934 2932 2931 2930 2928 2924 2921 2919 2916 2914 2912 2909 2907 2906 2904 2902 2901 2899 2897 2895 2893 2892 2889
3039 3036 3033 3031 3028 3026 3023 3020 3018 3016 3013 3011 3009 3006 3004 3001 2998 2996 2993 2991 2988 2986 2983 2981 2978 2975 2972 2970 2967 2964 2962 2959 2957 2955 2953 2951 2949 2948 2946 2944 2942 2941 2939 2938 2937 2935 2933 2932 2931 2930 2929 2925 2922 2918 2916 2914 2911 2909 2907 2905 2904 2902 2900 2899 2897 2895 2893 2891 2889
3038 3036 3033 3031 3028 3026 3023 3021 3018 3016 3013 3011 3009 3006 3004 3001 2998 2996 2993 2991 2988 2986 2983 2981 2978 2976 2973 2970 2967 2965 2962 2960 2957 2955 2953 2952 2950 2948 2946 2944 2942 2941 2939 2938 2936 2935 2933 2932 2930 2930 2929 2925 2921 2918 2916 2913 2911 2908 2907 2905 2903 2902 2900 2898 2897 2895 2893 2891 2889
3038 3036 3033 3031 3028 3026 3023 3021 3018 3016 3013 3011 3009 3006 3004 3001 2999 2996 2993 2991 2988 2986 2984 2981 2979 2976 2973 2971 2968 2966 2963 2961 2958 2956 2954 2952 2950 2948 2946 2944 2942 2941 2939 2937 2936 2934 2933 2931 2929 2929 2928 2924 2920 2917 2915 2913 2910 2908 2906 2904 2903 2901 2900 2898 2897 2895 2893 2891 2889
3038 3036 3033 3031 3028 3026 3023 3021 3018 3016 3013 3011 3009 3007 3004 3002 2999 2996 2994 2991 2989 2986 2984 2982 2979 2977 2974 2971 2969 2966 2963 2961 2959 2957 2954 2952 2950 2948 2946 2944 2942 2941 2939 2937 2935 2933 2932 2930 2928 2927 2926 2924 2920 2917 2915 2912 2910 2907 2906 2904 2902 2901 2899 2898 2897 2895 2893 2891 2888